Regional Weather Roundup
Issued by NWS Boston, MA

Home | Current Version | Previous Version | Text Only | Print | Product List | Glossary On
Versions: 1 2 3 4 5 6 7 8 9 10 11 12 13 14 15 16 17 18 19 20 21 22 23 24 25 26 27
000
ASUS41 KBOX 231010
RWRBOX

REGIONAL WEATHER ROUNDUP
NATIONAL WEATHER SERVICE TAUNTON MA
600 AM EDT THU OCT 23 2014

NOTE:  "FAIR" INDICATES FEW OR NO CLOUDS BELOW 12,000 FEET WITH NO
SIGNIFICANT WEATHER AND/OR OBSTRUCTIONS TO VISIBILITY.  THE FOLLOWING
OBSERVATION LOCATIONS DO NOT REPORT PRESENT WEATHER...PROVINCETOWN...
SMITHFIELD...BLOCK ISLAND...KEENE...AND OXFORD.

MAZALL-231100-
EASTERN MASSACHUSETTS

CITY           SKY/WX    TMP DP  RH WIND       PRES   REMARKS
BOSTON         HVY RAIN  51  50  96 N29G41    29.67F FOG
BEVERLY        HVY RAIN  51  48  89 NE15G25   29.72R FOG
LAWRENCE       HVY RAIN  50  48  93 NE18G29   29.74F FOG
BEDFORD        HVY RAIN  48  48 100 N7        29.72F FOG
BLUE HILL        N/A     50  49  96 N20G38    29.66F
NORWOOD        LGT RAIN  52  49  89 N12G21    29.68R
MARSHFIELD     LGT RAIN N/A N/A N/A NE3       29.66R
PLYMOUTH       LGT RAIN  56  55  97 N20G26    29.59F
TAUNTON        LGT RAIN  56  54  93 N10G22    29.60F
NEW BEDFORD    CLOUDY    57  56  96 N9G31     29.55F
$$

MAZALL-231100-
CAPE COD AND THE ISLANDS

CITY           SKY/WX    TMP DP  RH WIND       PRES   REMARKS
FALMOUTH       DRIZZLE   57  57 100 NE17G26   29.53S
HYANNIS        CLOUDY    59  57  93 NE14G25   29.52F
CHATHAM        LGT RAIN  56  56 100 NE13G21   29.54F
PROVINCETOWN   CLOUDY    55   3  12 NE9       29.63R
NANTUCKET      MOCLDY    57  55  93 E5        29.53R
MARTHAS VNYRD  CLOUDY    58  57  97 NE8       29.54R
$$

MAZALL-231100-
CENTRAL AND WESTERN MASSACHUSETTS

CITY           SKY/WX    TMP DP  RH WIND       PRES   REMARKS
WORCESTER      RAIN      45  44  97 N23G33    29.70S FOG
FITCHBURG      HVY RAIN  48  45  89 N10G18    29.77S FOG
ORANGE         RAIN      48  46  93 N12       29.77F
SPRINGFIELD    RAIN      49  46  91 NE16      29.72R
WESTFIELD      RAIN      50  47  89 N17G29    29.72F
NORTH ADAMS    HVY RAIN  44  43  96 W9        29.81F FOG
PITTSFIELD     HVY RAIN  46  44  93 N8        29.76F FOG
$$

RIZALL-231100-
RHODE ISLAND

CITY           SKY/WX    TMP DP  RH WIND       PRES   REMARKS
PROVIDENCE     LGT RAIN  51  48  89 N24G35    29.58F
NEWPORT        CLOUDY    55  51  86 N20G28    29.57F FOG
BLOCK ISLAND   CLOUDY    52  48  87 N20G36    29.56F
SMITHFIELD     CLOUDY    48  39  71 N21G35    29.63F
WESTERLY       CLOUDY    51  47  86 N18G31    29.59F
$$

CTZALL-231100-
CONNECTICUT

CITY           SKY/WX    TMP DP  RH WIND       PRES   REMARKS
BRADLEY INTL   LGT RAIN  50  46  86 N22       29.70S
HARTFORD       CLOUDY    50  46  86 N16G24    29.69F
BRIDGEPORT     CLOUDY    53  46  77 N22G28    29.66R
DANBURY        LGT RAIN  51  44  77 N13G20    29.72S
GROTON         MOCLDY    50  47  89 N22G31    29.58F
NEW HAVEN      CLOUDY    52  46  80 N25G37    29.64S
CHESTER        NOT AVBL
MERIDEN        RAIN      50  46  86 N13G24    29.68F FOG
WILLIMANTIC    CLOUDY    52  45  77 N13G25    29.67F
OXFORD         LGT RAIN  48  43  81 NE20G31   29.68S
$$

MEZ002-015-021-024-NHZ003-005-008-011-012-014-VTZ005-008-231100-
NORTHERN NEW ENGLAND

CITY           SKY/WX    TMP DP  RH WIND       PRES   REMARKS
PORTLAND ME    CLOUDY    50  46  86 N18G28    29.82F
BANGOR ME      LGT RAIN  48  46  93 NE16G26   29.97F
CONCORD NH     LGT RAIN  47  46  97 NE18G28   29.79F
MANCHESTER NH  LGT RAIN  50  45  83 N17G30    29.75S
NASHUA NH      LGT RAIN  48  48 100 N8        29.77S FOG
PORTSMOUTH NH  LGT RAIN  49  47  91 N21G29    29.73F FOG
JAFFREY NH     RAIN      46  44  93 VRB5      29.79R FOG
KEENE NH       CLOUDY    48  39  71 N8        29.80S
BURLINGTON VT  CLOUDY    45  36  70 N16G23    30.00S
MT. WASHINGTON LGTSLEET  32  32 100 E62G68      N/A  VSB 1/16WCI  13
$$

NYZ052-076-231100-
EASTERN NEW YORK

CITY           SKY/WX    TMP DP  RH WIND       PRES   REMARKS
ALBANY         RAIN      47  43  86 N12       29.87R FOG
NEW YORK CITY  CLOUDY    52  47  83 N12G22    29.70R
$$

ANZALL-231100-
MARINE OBSERVATIONS

STATION/POSITION TIME  TEMP    WIND        PRES    VSBY  WAVE
                       AIR SEA DIR/SP/G                  HT/PER
                 (UTC) (F)     (DEG/KT/KT) (MB)    (MI)  (FT/S)
BOSTON BUOY      NOT AVBL
BUZZARDS BAY     NOT AVBL
NANTUCKET SOUND  NOT AVBL
MASS BAY-STELLWA NOT AVBL
ISLE OF SHOALS   NOT AVBL
S OF BLOCK IS    NOT AVBL
$$

......................KEY.........................
  SKY/WX - SKY CONDITION/PRESENT WEATHER
  TMP    - TEMPERATURE IN FAHRENHEIT
  DWPT   - DEWPOINT IN FAHRENHEIT
  RH     - RELATIVE HUMIDITY IN PERCENT
  WIND   - DIRECTION AND SPEED IN MPH
  PRES   - MEAN SEA LEVEL PRESSURE IN INCHES OF HG
  WCI    - WIND CHILL INDEX
  VSB    - VISIBILITY IN MILES
  HX     - HEAT INDEX
  TC     - TEMPERATURE IN CELSIUS
  VRB    - VARIABLE WIND DIRECTION
  N/A    - NOT AVAILABLE



USA.gov is the U.S. government's official web portal to all federal, state and local government web resources and services.